Regional Weather Roundup
Issued by NWS Goodland, KS

Home | Current Version | Previous Version | Text Only | Print | Product List | Glossary On
Versions: 1 2 3 4 5 6 7 8 9 10 11 12 13 14 15 16 17 18 19 20 21 22 23 24 25 26 27 28 29 30 31 32 33 34 35 36 37 38 39 40 41 42 43 44 45 46 47 48 49 50
000
ASUS43 KGLD 282308
RWRGLD

GOODLAND FORECAST AREA HOURLY WEATHER ROUNDUP
NATIONAL WEATHER SERVICE GOODLAND KS
500 PM MDT FRI AUG 28 2015

...OFFICIAL OBSERVATIONS...

CITY           SKY/WX    TMP DP  RH WIND       PRES   REMARKS
GOODLAND KS    SUNNY     90  41  18 N16G23    30.04S
HILL CITY KS   SUNNY     89  60  37 N13       29.96R
IMPERIAL NEB   MOSUNNY   88  53  30 NE9G22    30.04R
MCCOOK NEB     SUNNY     85  59  41 N15       29.99S
AKRON CO       SUNNY     86  33  15 N14       30.14S
BURLINGTON CO  SUNNY     86  42  21 N15G24    30.09S
LIMON CO       SUNNY     82  44  26 N13G18    30.19F
$$

...UNOFFICIAL OBSERVATIONS...

CITY           SKY/WX    TMP DP  RH WIND       PRES   REMARKS
COLBY KS       SUNNY     90  57  33 N15       30.03R
GOVE KS          N/A     90  32  12 MISG        N/A
LENORA KS        N/A     85  32  15 MISG        N/A
NORTON KS      SUNNY     81  55  41 N12G22    29.96S
SHARON SPRINGS   N/A     89  53  29 N9G17       N/A
TRIBUNE KS     PTSUNNY   91  48  22 N16       30.05
TRENTON NEB      N/A     84  32  15 N12         N/A
YUMA CO          N/A     87  42  20 N10         N/A
$$



USA.gov is the U.S. government's official web portal to all federal, state and local government web resources and services.